| time (UTC) | temp F | wind direction | speed MPH | gust MPH | rain 1hr in | rain 24hr in | rain mn in | humidity % | barometer mb |
| 20260902055739 | 59 | 0.0 | 0.0 | 0.00 | 0.00 | 0.00 | 99 | 1023.1 | |
| 20260902044735 | 59 | 0.0 | 0.0 | 0.00 | 0.00 | 0.00 | 99 | 1022.8 | |
| 20260902044235 | 59 | 0.0 | 0.0 | 0.00 | 0.00 | 0.00 | 99 | 1022.8 | |
| 20260902043734 | 59 | 0.0 | 0.0 | 0.00 | 0.00 | 0.00 | 99 | 1022.4 | |
| 20260902043235 | 59 | 333 | 0.0 | 1.0 | 0.00 | 0.00 | 0.00 | 99 | 1022.4 |
| 20260902042735 | 59 | 0.0 | 0.0 | 0.00 | 0.00 | 0.00 | 99 | 1022.4 | |
| 20260902042235 | 59 | 312 | 0.0 | 1.0 | 0.00 | 0.00 | 0.00 | 99 | 1022.4 |
| 20260902041733 | 59 | 0.0 | 0.0 | 0.00 | 0.00 | 0.00 | 99 | 1022.4 | |
| 20260902041232 | 59 | 0.0 | 0.0 | 0.00 | 0.00 | 0.00 | 99 | 1022.1 | |
| 20260902040733 | 59 | 0.0 | 0.0 | 0.00 | 0.00 | 0.00 | 99 | 1022.1 | |
| 20260902040232 | 59 | 0.0 | 0.0 | 0.00 | 0.00 | 0.00 | 99 | 1022.4 | |
| 20260902035733 | 59 | 0.0 | 0.0 | 0.00 | 0.00 | 0.49 | 99 | 1022.2 | |
| 20260902035232 | 59 | 0.0 | 0.0 | 0.00 | 0.00 | 0.49 | 99 | 1022.4 | |
| 20260902034731 | 59 | 0.0 | 0.0 | 0.00 | 0.00 | 0.49 | 99 | 1022.2 | |
| 20260902034231 | 59 | 0.0 | 0.0 | 0.00 | 0.00 | 0.49 | 99 | 1022.2 | |
| 20260902033731 | 59 | 0.0 | 0.0 | 0.00 | 0.00 | 0.49 | 99 | 1022.1 | |
| 20260902032730 | 59 | 0.0 | 0.0 | 0.00 | 0.00 | 0.49 | 99 | 1022.2 | |
| 20260902032230 | 59 | 0.0 | 0.0 | 0.00 | 0.00 | 0.49 | 99 | 1022.4 | |
| 20260902031730 | 59 | 0.0 | 0.0 | 0.00 | 0.00 | 0.49 | 99 | 1022.4 | |
| 20260902031228 | 59 | 0.0 | 0.0 | 0.00 | 0.00 | 0.49 | 99 | 1022.4 | |
| 20260902030728 | 59 | 0.0 | 0.0 | 0.00 | 0.00 | 0.49 | 99 | 1022.1 | |
| 20260902030329 | 59 | 321 | 0.0 | 1.0 | 0.00 | 0.00 | 0.49 | 99 | 1022.4 |
| 20260902025731 | 60 | 0.0 | 0.0 | 0.00 | 0.00 | 0.49 | 99 | 1022.4 | |
| 20260902025226 | 60 | 336 | 0.0 | 1.0 | 0.00 | 0.00 | 0.49 | 99 | 1022.4 |
| 20260902024726 | 60 | 336 | 0.0 | 1.0 | 0.00 | 0.00 | 0.49 | 99 | 1022.4 |
| 20260902024330 | 60 | 336 | 0.0 | 1.0 | 0.00 | 0.00 | 0.49 | 99 | 1022.2 |
| 20260902023727 | 60 | 343 | 1.0 | 2.0 | 0.00 | 0.00 | 0.49 | 99 | 1022.1 |
| 20260902023327 | 60 | 343 | 1.0 | 2.0 | 0.00 | 0.00 | 0.49 | 99 | 1021.7 |
| 20260902022726 | 60 | 1 | 2.0 | 3.0 | 0.00 | 0.00 | 0.49 | 99 | 1021.9 |
| 20260902022227 | 60 | 345 | 1.0 | 2.0 | 0.00 | 0.00 | 0.49 | 99 | 1022.1 |
| 20260902021725 | 60 | 7 | 3.0 | 5.0 | 0.00 | 0.00 | 0.49 | 99 | 1022.1 |
| 20260902021226 | 60 | 350 | 1.0 | 2.0 | 0.00 | 0.00 | 0.49 | 99 | 1022.1 |
| 20260902020723 | 60 | 78 | 3.0 | 5.0 | 0.00 | 0.00 | 0.49 | 99 | 1022.1 |
| 20260902020225 | 60 | 146 | 4.0 | 5.0 | 0.00 | 0.00 | 0.49 | 99 | 1021.7 |
| 20260902015723 | 60 | 136 | 4.0 | 6.0 | 0.00 | 0.00 | 0.49 | 99 | 1022.1 |
| 20260902015323 | 60 | 349 | 2.0 | 2.0 | 0.00 | 0.00 | 0.49 | 99 | 1022.1 |
| 20260902014827 | 60 | 287 | 3.0 | 5.0 | 0.00 | 0.00 | 0.49 | 99 | 1022.1 |
| 20260902014223 | 60 | 349 | 1.0 | 2.0 | 0.00 | 0.00 | 0.49 | 99 | 1022.1 |
| 20260902013723 | 60 | 66 | 2.0 | 5.0 | 0.00 | 0.00 | 0.49 | 99 | 1022.2 |
| 20260902013221 | 60 | 235 | 3.0 | 5.0 | 0.00 | 0.00 | 0.49 | 99 | 1022.2 |
| 20260902012722 | 60 | 12 | 3.0 | 3.0 | 0.00 | 0.00 | 0.49 | 99 | 1022.1 |
| 20260902012222 | 60 | 357 | 2.0 | 2.0 | 0.00 | 0.00 | 0.49 | 99 | 1022.1 |
| 20260902011721 | 60 | 30 | 2.0 | 3.0 | 0.00 | 0.00 | 0.49 | 99 | 1022.1 |
| 20260902011220 | 61 | 27 | 3.0 | 5.0 | 0.00 | 0.00 | 0.49 | 99 | 1022.1 |
| 20260902010721 | 61 | 2 | 2.0 | 3.0 | 0.00 | 0.00 | 0.49 | 99 | 1022.1 |
| 20260902010220 | 61 | 328 | 1.0 | 2.0 | 0.00 | 0.00 | 0.49 | 99 | 1022.1 |
| 20260902005719 | 61 | 29 | 2.0 | 3.0 | 0.00 | 0.00 | 0.49 | 99 | 1021.7 |
| 20260902005218 | 61 | 303 | 3.0 | 3.0 | 0.00 | 0.00 | 0.48 | 99 | 1021.7 |
| 20260902004720 | 61 | 343 | 1.0 | 1.0 | 0.00 | 0.00 | 0.48 | 99 | 1022.1 |
| 20260902004320 | 61 | 325 | 2.0 | 2.0 | 0.00 | 0.00 | 0.48 | 99 | 1021.7 |
| 20260902003818 | 61 | 311 | 2.0 | 2.0 | 0.00 | 0.00 | 0.48 | 99 | 1021.7 |
| 20260902003217 | 61 | 237 | 4.0 | 5.0 | 0.00 | 0.00 | 0.48 | 99 | 1021.5 |
| 20260902002716 | 61 | 347 | 2.0 | 2.0 | 0.00 | 0.00 | 0.48 | 99 | 1021.4 |
| 20260902002220 | 61 | 306 | 1.0 | 2.0 | 0.00 | 0.00 | 0.48 | 99 | 1021.4 |
| 20260902001757 | 61 | 350 | 1.0 | 2.0 | 0.00 | 0.00 | 0.47 | 99 | 1021.2 |
| 20260901231243 | 62 | 0.0 | 0.0 | 0.00 | 0.00 | 0.47 | 99 | 1021.0 | |
| 20260901230742 | 62 | 0.0 | 0.0 | 0.00 | 0.00 | 0.47 | 99 | 1021.0 | |
| 20260901230242 | 62 | 313 | 1.0 | 2.0 | 0.00 | 0.00 | 0.47 | 99 | 1021.0 |
| 20260901225841 | 62 | 319 | 0.0 | 1.0 | 0.00 | 0.00 | 0.47 | 99 | 1021.0 |
| 20260901225241 | 62 | 325 | 1.0 | 1.0 | 0.00 | 0.00 | 0.47 | 99 | 1021.0 |
| 20260901224741 | 62 | 320 | 0.0 | 1.0 | 0.00 | 0.00 | 0.47 | 99 | 1021.0 |
| 20260901223239 | 62 | 329 | 1.0 | 1.0 | 0.00 | 0.00 | 0.47 | 99 | 1021.0 |
| 20260901222240 | 62 | 301 | 2.0 | 2.0 | 0.00 | 0.00 | 0.47 | 99 | 1021.2 |
| 20260901221739 | 62 | 317 | 1.0 | 2.0 | 0.00 | 0.00 | 0.47 | 99 | 1021.0 |
| 20260901221238 | 62 | 309 | 1.0 | 2.0 | 0.00 | 0.00 | 0.47 | 99 | 1021.0 |
| 20260901220240 | 62 | 0.0 | 0.0 | 0.00 | 0.00 | 0.47 | 99 | 1020.7 | |
| 20260901215738 | 62 | 294 | 2.0 | 2.0 | 0.00 | 0.00 | 0.47 | 99 | 1020.7 |
| 20260901215237 | 62 | 327 | 1.0 | 1.0 | 0.00 | 0.00 | 0.46 | 99 | 1020.7 |
| 20260901214736 | 62 | 304 | 2.0 | 2.0 | 0.00 | 0.00 | 0.46 | 99 | 1020.7 |
| 20260901214237 | 62 | 338 | 1.0 | 1.0 | 0.00 | 0.00 | 0.46 | 99 | 1020.7 |
| 20260901213736 | 62 | 310 | 1.0 | 2.0 | 0.00 | 0.00 | 0.46 | 99 | 1020.7 |
| 20260901213235 | 62 | 332 | 0.0 | 1.0 | 0.00 | 0.00 | 0.46 | 99 | 1020.7 |
| 20260901212735 | 62 | 324 | 0.0 | 1.0 | 0.00 | 0.00 | 0.46 | 99 | 1020.7 |
| 20260901212236 | 62 | 314 | 1.0 | 2.0 | 0.00 | 0.00 | 0.46 | 99 | 1020.7 |
| 20260901211735 | 62 | 323 | 1.0 | 1.0 | 0.00 | 0.00 | 0.46 | 99 | 1020.7 |
| 20260901211234 | 62 | 305 | 1.0 | 2.0 | 0.00 | 0.00 | 0.46 | 99 | 1020.7 |
| 20260901210733 | 62 | 0.0 | 0.0 | 0.00 | 0.00 | 0.46 | 99 | 1020.3 | |
| 20260901210233 | 62 | 341 | 1.0 | 2.0 | 0.00 | 0.00 | 0.46 | 99 | 1020.7 |
| 20260901205734 | 62 | 314 | 1.0 | 1.0 | 0.00 | 0.00 | 0.46 | 99 | 1020.7 |
| 20260901205233 | 62 | 324 | 1.0 | 1.0 | 0.00 | 0.00 | 0.46 | 99 | 1020.7 |
| 20260901204732 | 62 | 336 | 0.0 | 1.0 | 0.00 | 0.00 | 0.46 | 99 | 1020.7 |
| 20260901204232 | 62 | 304 | 2.0 | 3.0 | 0.00 | 0.00 | 0.46 | 99 | 1020.7 |
| 20260901203733 | 62 | 325 | 1.0 | 2.0 | 0.00 | 0.00 | 0.46 | 99 | 1020.7 |
| 20260901203234 | 62 | 333 | 1.0 | 1.0 | 0.00 | 0.00 | 0.46 | 99 | 1020.7 |
| 20260901202831 | 62 | 0.0 | 0.0 | 0.00 | 0.00 | 0.46 | 99 | 1020.3 | |
| 20260901202230 | 62 | 318 | 1.0 | 2.0 | 0.00 | 0.00 | 0.46 | 99 | 1020.3 |
| 20260901201731 | 62 | 0.0 | 0.0 | 0.00 | 0.00 | 0.46 | 99 | 1020.3 | |
| 20260901201230 | 62 | 335 | 1.0 | 1.0 | 0.00 | 0.00 | 0.46 | 99 | 1020.3 |
| 20260901200732 | 62 | 0.0 | 0.0 | 0.00 | 0.00 | 0.46 | 99 | 1020.3 | |
| 20260901200231 | 62 | 343 | 2.0 | 3.0 | 0.00 | 0.00 | 0.46 | 99 | 1020.0 |
| 20260901195731 | 62 | 331 | 3.0 | 5.0 | 0.00 | 0.00 | 0.46 | 99 | 1020.3 |
| 20260901195229 | 62 | 313 | 0.0 | 1.0 | 0.00 | 0.00 | 0.46 | 99 | 1020.3 |
| 20260901194732 | 62 | 325 | 0.0 | 1.0 | 0.00 | 0.00 | 0.46 | 99 | 1020.3 |
| 20260901194230 | 61 | 321 | 1.0 | 2.0 | 0.00 | 0.00 | 0.46 | 99 | 1020.3 |
| 20260901193729 | 61 | 336 | 2.0 | 2.0 | 0.00 | 0.00 | 0.46 | 99 | 1020.3 |
| 20260901193228 | 61 | 284 | 3.0 | 3.0 | 0.00 | 0.00 | 0.46 | 99 | 1020.3 |
| 20260901192730 | 61 | 332 | 1.0 | 2.0 | 0.00 | 0.00 | 0.46 | 99 | 1020.3 |
| 20260901192228 | 61 | 307 | 1.0 | 2.0 | 0.00 | 0.00 | 0.46 | 99 | 1020.3 |
| 20260901191728 | 61 | 356 | 1.0 | 1.0 | 0.00 | 0.00 | 0.46 | 99 | 1020.3 |
| 20260901191227 | 61 | 323 | 1.0 | 2.0 | 0.00 | 0.00 | 0.46 | 99 | 1020.5 |
| 20260901190225 | 61 | 0.0 | 0.0 | 0.00 | 0.00 | 0.46 | 99 | 1020.7 | |
| 20260901185226 | 61 | 303 | 1.0 | 1.0 | 0.00 | 0.00 | 0.46 | 99 | 1020.7 |
| 20260901184724 | 61 | 8 | 2.0 | 3.0 | 0.00 | 0.00 | 0.46 | 99 | 1020.3 |
| 20260901184224 | 61 | 354 | 2.0 | 2.0 | 0.00 | 0.00 | 0.46 | 99 | 1020.5 |
| 20260901183725 | 61 | 321 | 3.0 | 3.0 | 0.00 | 0.00 | 0.46 | 99 | 1020.5 |
| 20260901183225 | 61 | 337 | 1.0 | 2.0 | 0.00 | 0.00 | 0.46 | 99 | 1020.3 |
| 20260901182724 | 61 | 0.0 | 0.0 | 0.00 | 0.00 | 0.46 | 99 | 1020.5 | |
| 20260901182224 | 61 | 329 | 1.0 | 2.0 | 0.00 | 0.00 | 0.46 | 99 | 1020.3 |
| 20260901181722 | 61 | 313 | 1.0 | 2.0 | 0.00 | 0.00 | 0.46 | 99 | 1020.3 |
| 20260901181223 | 61 | 330 | 0.0 | 1.0 | 0.00 | 0.00 | 0.46 | 99 | 1020.3 |
| 20260901180722 | 61 | 0.0 | 0.0 | 0.00 | 0.00 | 0.45 | 99 | 1020.3 | |
| 20260901180222 | 61 | 322 | 1.0 | 2.0 | 0.00 | 0.00 | 0.45 | 99 | 1020.3 |
| 20260901175720 | 61 | 328 | 0.0 | 1.0 | 0.00 | 0.00 | 0.45 | 99 | 1020.3 |
| 20260901175220 | 61 | 307 | 2.0 | 2.0 | 0.00 | 0.00 | 0.45 | 99 | 1020.3 |
| 20260901174721 | 61 | 322 | 1.0 | 2.0 | 0.00 | 0.00 | 0.45 | 99 | 1020.3 |
| 20260901174220 | 61 | 326 | 1.0 | 1.0 | 0.00 | 0.00 | 0.44 | 99 | 1020.3 |
| 20260901173721 | 60 | 0.0 | 0.0 | 0.00 | 0.00 | 0.44 | 99 | 1020.3 | |
| 20260901173218 | 61 | 326 | 0.0 | 1.0 | 0.00 | 0.00 | 0.44 | 99 | 1020.3 |
| 20260901172720 | 60 | 325 | 1.0 | 2.0 | 0.00 | 0.00 | 0.43 | 99 | 1020.3 |
| 20260901172219 | 60 | 321 | 1.0 | 1.0 | 0.00 | 0.00 | 0.43 | 99 | 1020.3 |
| 20260901171718 | 60 | 322 | 2.0 | 2.0 | 0.00 | 0.00 | 0.42 | 99 | 1020.3 |
| 20260901171219 | 60 | 333 | 0.0 | 1.0 | 0.00 | 0.00 | 0.41 | 99 | 1020.3 |
| 20260901170718 | 60 | 318 | 2.0 | 3.0 | 0.00 | 0.00 | 0.41 | 99 | 1020.3 |
| 20260901170218 | 60 | 323 | 3.0 | 5.0 | 0.00 | 0.00 | 0.41 | 99 | 1020.3 |
| 20260901155717 | 60 | 292 | 1.0 | 2.0 | 0.00 | 0.00 | 0.39 | 99 | 1019.8 |
| 20260901155246 | 60 | 0.0 | 0.0 | 0.00 | 0.00 | 0.38 | 99 | 1020.0 | |
| 20260901154745 | 60 | 0.0 | 0.0 | 0.00 | 0.00 | 0.37 | 99 | 1020.0 | |
| 20260901154247 | 60 | 324 | 1.0 | 2.0 | 0.00 | 0.00 | 0.36 | 99 | 1020.3 |
| 20260901153746 | 60 | 332 | 2.0 | 2.0 | 0.00 | 0.00 | 0.35 | 99 | 1020.3 |
| 20260901153245 | 60 | 0.0 | 0.0 | 0.00 | 0.00 | 0.35 | 99 | 1020.0 | |
| 20260901152845 | 60 | 330 | 1.0 | 2.0 | 0.00 | 0.00 | 0.34 | 99 | 1020.3 |
| 20260901152243 | 60 | 322 | 1.0 | 2.0 | 0.00 | 0.00 | 0.33 | 99 | 1020.3 |
| 20260901151745 | 60 | 323 | 1.0 | 2.0 | 0.00 | 0.00 | 0.33 | 99 | 1020.3 |
| 20260901151243 | 60 | 334 | 1.0 | 1.0 | 0.00 | 0.00 | 0.32 | 99 | 1020.3 |
| 20260901150747 | 59 | 328 | 1.0 | 2.0 | 0.00 | 0.00 | 0.31 | 99 | 1020.3 |
| 20260901150242 | 60 | 321 | 2.0 | 3.0 | 0.00 | 0.00 | 0.30 | 99 | 1020.3 |
| 20260901145743 | 60 | 312 | 2.0 | 2.0 | 0.00 | 0.00 | 0.30 | 99 | 1020.0 |
| 20260901145242 | 60 | 0.0 | 0.0 | 0.00 | 0.00 | 0.30 | 99 | 1020.0 | |
| 20260901144741 | 60 | 324 | 0.0 | 1.0 | 0.00 | 0.00 | 0.30 | 99 | 1020.0 |
| 20260901144341 | 60 | 322 | 1.0 | 2.0 | 0.00 | 0.00 | 0.30 | 99 | 1020.0 |
| 20260901143743 | 60 | 329 | 0.0 | 1.0 | 0.00 | 0.00 | 0.30 | 99 | 1020.0 |
| 20260901143241 | 60 | 318 | 1.0 | 1.0 | 0.00 | 0.00 | 0.30 | 99 | 1020.0 |
| 20260901142742 | 60 | 323 | 1.0 | 1.0 | 0.00 | 0.00 | 0.30 | 99 | 1020.0 |
| 20260901141740 | 60 | 323 | 0.0 | 1.0 | 0.00 | 0.00 | 0.30 | 99 | 1020.0 |
| 20260901141241 | 60 | 325 | 1.0 | 2.0 | 0.00 | 0.00 | 0.30 | 99 | 1020.0 |
| 20260901140739 | 59 | 0.0 | 0.0 | 0.00 | 0.00 | 0.30 | 99 | 1020.0 | |
| 20260901140240 | 59 | 323 | 1.0 | 2.0 | 0.00 | 0.00 | 0.30 | 99 | 1020.1 |
| 20260901135740 | 59 | 331 | 2.0 | 2.0 | 0.00 | 0.00 | 0.30 | 99 | 1020.3 |
| 20260901135238 | 59 | 323 | 1.0 | 2.0 | 0.00 | 0.00 | 0.30 | 99 | 1020.3 |
| 20260901134738 | 59 | 321 | 1.0 | 2.0 | 0.00 | 0.00 | 0.30 | 99 | 1020.3 |
| 20260901134237 | 59 | 321 | 1.0 | 2.0 | 0.00 | 0.00 | 0.30 | 99 | 1020.3 |
| 20260901133738 | 59 | 322 | 1.0 | 1.0 | 0.00 | 0.00 | 0.30 | 99 | 1020.3 |
| 20260901133238 | 60 | 326 | 1.0 | 1.0 | 0.00 | 0.00 | 0.30 | 99 | 1020.3 |
| 20260901132738 | 60 | 324 | 1.0 | 1.0 | 0.00 | 0.00 | 0.30 | 99 | 1020.3 |
| 20260901132235 | 60 | 316 | 1.0 | 2.0 | 0.00 | 0.00 | 0.30 | 99 | 1020.3 |
| 20260901131735 | 60 | 321 | 1.0 | 1.0 | 0.00 | 0.00 | 0.30 | 99 | 1020.3 |
| 20260901131236 | 60 | 338 | 1.0 | 1.0 | 0.00 | 0.00 | 0.30 | 99 | 1020.3 |
| 20260901130837 | 60 | 304 | 1.0 | 2.0 | 0.00 | 0.00 | 0.30 | 99 | 1020.3 |
| 20260901130236 | 60 | 323 | 2.0 | 5.0 | 0.00 | 0.00 | 0.30 | 99 | 1020.7 |
| 20260901125739 | 60 | 327 | 1.0 | 1.0 | 0.00 | 0.00 | 0.30 | 99 | 1020.5 |
| 20260901125235 | 61 | 328 | 0.0 | 1.0 | 0.00 | 0.00 | 0.30 | 99 | 1020.3 |
| 20260901124839 | 61 | 327 | 1.0 | 1.0 | 0.00 | 0.00 | 0.30 | 99 | 1020.7 |
| 20260901124233 | 60 | 0.0 | 0.0 | 0.00 | 0.00 | 0.30 | 99 | 1020.5 | |
| 20260901123732 | 60 | 327 | 0.0 | 1.0 | 0.00 | 0.00 | 0.30 | 99 | 1020.7 |
| 20260901123237 | 60 | 0.0 | 0.0 | 0.00 | 0.00 | 0.30 | 99 | 1020.7 | |
| 20260901122737 | 60 | 321 | 1.0 | 1.0 | 0.00 | 0.00 | 0.30 | 99 | 1020.7 |
| 20260901121739 | 60 | 331 | 0.0 | 1.0 | 0.00 | 0.00 | 0.29 | 99 | 1020.7 |
| 20260901121238 | 60 | 0.0 | 0.0 | 0.00 | 0.00 | 0.29 | 99 | 1020.7 | |
| 20260901120731 | 60 | 0.0 | 0.0 | 0.00 | 0.00 | 0.29 | 99 | 1020.7 | |
| 20260901120231 | 60 | 323 | 0.0 | 1.0 | 0.00 | 0.00 | 0.29 | 99 | 1020.7 |
| 20260901115731 | 60 | 322 | 1.0 | 1.0 | 0.00 | 0.00 | 0.28 | 99 | 1020.7 |
| 20260901115331 | 60 | 333 | 0.0 | 2.0 | 0.00 | 0.00 | 0.27 | 99 | 1020.7 |
| 20260901114229 | 60 | 326 | 0.0 | 1.0 | 0.00 | 0.00 | 0.23 | 99 | 1020.7 |
| 20260901113728 | 60 | 0.0 | 0.0 | 0.00 | 0.00 | 0.20 | 99 | 1020.7 | |
| 20260901113230 | 60 | 0.0 | 0.0 | 0.00 | 0.00 | 0.18 | 99 | 1020.7 | |
| 20260901112731 | 60 | 323 | 1.0 | 1.0 | 0.00 | 0.00 | 0.16 | 99 | 1020.7 |
| 20260901112328 | 60 | 320 | 2.0 | 2.0 | 0.00 | 0.00 | 0.14 | 99 | 1020.7 |
| 20260901111728 | 60 | 322 | 1.0 | 2.0 | 0.00 | 0.00 | 0.13 | 99 | 1020.7 |
| 20260901111229 | 61 | 325 | 1.0 | 1.0 | 0.00 | 0.00 | 0.10 | 99 | 1020.7 |
| 20260901110728 | 61 | 321 | 1.0 | 2.0 | 0.00 | 0.00 | 0.08 | 99 | 1020.7 |
| 20260901110228 | 61 | 327 | 2.0 | 2.0 | 0.00 | 0.00 | 0.05 | 99 | 1020.7 |
| 20260901105727 | 61 | 323 | 1.0 | 1.0 | 0.00 | 0.00 | 0.03 | 99 | 1020.5 |
| 20260901105226 | 61 | 320 | 1.0 | 1.0 | 0.00 | 0.00 | 0.01 | 99 | 1020.3 |
| 20260901104226 | 62 | 324 | 2.0 | 2.0 | 0.00 | 0.00 | 0.00 | 99 | 1020.5 |
| 20260901103727 | 62 | 329 | 0.0 | 1.0 | 0.00 | 0.00 | 0.00 | 99 | 1020.3 |
| 20260901103226 | 62 | 317 | 3.0 | 5.0 | 0.00 | 0.00 | 0.00 | 99 | 1020.3 |
| 20260901102726 | 62 | 0.0 | 0.0 | 0.00 | 0.00 | 0.00 | 99 | 1020.0 | |
| 20260901102223 | 62 | 0.0 | 0.0 | 0.00 | 0.00 | 0.00 | 99 | 1020.0 | |
| 20260901101724 | 62 | 326 | 2.0 | 2.0 | 0.00 | 0.00 | 0.00 | 99 | 1020.3 |
| 20260901101224 | 62 | 0.0 | 0.0 | 0.00 | 0.00 | 0.00 | 99 | 1020.0 | |
| 20260901100723 | 62 | 335 | 1.0 | 1.0 | 0.00 | 0.00 | 0.00 | 99 | 1019.8 |
| 20260901100224 | 62 | 319 | 0.0 | 1.0 | 0.00 | 0.00 | 0.00 | 99 | 1019.6 |
| 20260901095723 | 62 | 332 | 0.0 | 1.0 | 0.00 | 0.00 | 0.00 | 99 | 1020.0 |
| 20260901095222 | 62 | 0.0 | 0.0 | 0.00 | 0.00 | 0.00 | 99 | 1019.6 | |
| 20260901094722 | 62 | 0.0 | 0.0 | 0.00 | 0.00 | 0.00 | 99 | 1019.6 | |
| 20260901094221 | 62 | 328 | 0.0 | 1.0 | 0.00 | 0.00 | 0.00 | 99 | 1019.6 |
| 20260901093722 | 62 | 322 | 2.0 | 2.0 | 0.00 | 0.00 | 0.00 | 99 | 1019.6 |
| 20260901093221 | 62 | 312 | 2.0 | 2.0 | 0.00 | 0.00 | 0.00 | 99 | 1019.8 |
| 20260901092720 | 63 | 334 | 1.0 | 1.0 | 0.00 | 0.00 | 0.00 | 99 | 1019.6 |
| 20260901092220 | 63 | 0.0 | 0.0 | 0.00 | 0.00 | 0.00 | 99 | 1019.6 | |
| 20260901091721 | 63 | 0.0 | 0.0 | 0.00 | 0.00 | 0.00 | 99 | 1019.8 | |
| 20260901091220 | 63 | 0.0 | 0.0 | 0.00 | 0.00 | 0.00 | 99 | 1020.0 | |
| 20260901090719 | 63 | 0.0 | 0.0 | 0.00 | 0.00 | 0.00 | 99 | 1020.0 | |
| 20260901090218 | 63 | 0.0 | 0.0 | 0.00 | 0.00 | 0.00 | 99 | 1020.0 | |
| 20260901085719 | 63 | 0.0 | 0.0 | 0.00 | 0.00 | 0.00 | 99 | 1020.0 | |
| 20260901085219 | 63 | 0.0 | 0.0 | 0.00 | 0.00 | 0.00 | 99 | 1020.0 | |
| 20260901084219 | 63 | 0.0 | 0.0 | 0.00 | 0.00 | 0.00 | 99 | 1020.0 | |
| 20260901083718 | 63 | 0.0 | 0.0 | 0.00 | 0.00 | 0.00 | 99 | 1020.0 | |
| 20260901083218 | 63 | 0.0 | 0.0 | 0.00 | 0.00 | 0.00 | 99 | 1020.0 | |
| 20260901082717 | 63 | 0.0 | 0.0 | 0.00 | 0.00 | 0.00 | 99 | 1020.1 | |
| 20260901082318 | 63 | 0.0 | 0.0 | 0.00 | 0.00 | 0.00 | 99 | 1020.0 | |
| 20260901081718 | 63 | 0.0 | 0.0 | 0.00 | 0.00 | 0.00 | 99 | 1020.0 | |
| 20260901081319 | 63 | 0.0 | 0.0 | 0.00 | 0.00 | 0.00 | 99 | 1020.0 | |
| 20260901080746 | 63 | 0.0 | 0.0 | 0.00 | 0.00 | 0.00 | 99 | 1020.0 | |
| 20260901080244 | 63 | 318 | 1.0 | 1.0 | 0.00 | 0.00 | 0.00 | 99 | 1020.0 |
| 20260901075745 | 64 | 0.0 | 0.0 | 0.00 | 0.00 | 0.00 | 99 | 1019.8 | |
| 20260901075245 | 64 | 334 | 1.0 | 1.0 | 0.00 | 0.00 | 0.00 | 99 | 1020.0 |
| 20260901074744 | 64 | 333 | 0.0 | 1.0 | 0.00 | 0.00 | 0.00 | 99 | 1019.6 |
| 20260901074243 | 64 | 0.0 | 0.0 | 0.00 | 0.00 | 0.00 | 99 | 1020.0 | |
| 20260901073744 | 64 | 331 | 1.0 | 1.0 | 0.00 | 0.00 | 0.00 | 99 | 1020.0 |
| 20260901073243 | 64 | 331 | 0.0 | 1.0 | 0.00 | 0.00 | 0.00 | 99 | 1020.0 |
| 20260901072743 | 64 | 0.0 | 0.0 | 0.00 | 0.00 | 0.00 | 99 | 1020.0 | |
| 20260901071741 | 64 | 324 | 0.0 | 1.0 | 0.00 | 0.00 | 0.00 | 99 | 1020.0 |
| 20260901071244 | 64 | 331 | 1.0 | 1.0 | 0.00 | 0.00 | 0.00 | 99 | 1020.0 |
| 20260901070842 | 64 | 350 | 1.0 | 2.0 | 0.00 | 0.00 | 0.00 | 99 | 1020.0 |
| 20260901070341 | 64 | 334 | 1.0 | 1.0 | 0.00 | 0.00 | 0.00 | 99 | 1020.3 |
| 20260901065840 | 64 | 343 | 0.0 | 1.0 | 0.00 | 0.00 | 0.00 | 99 | 1020.7 |
| 20260901064239 | 64 | 0.0 | 0.0 | 0.00 | 0.00 | 0.00 | 99 | 1020.7 | |
| 20260901063739 | 64 | 0.0 | 0.0 | 0.00 | 0.00 | 0.00 | 99 | 1020.5 |